owner,sensor,date,latitude,longitude,vertical_datum,direction_of_sea_water_velocity,sea_water_speed,upward_sea_water_velocity,qcFlag 
TABS,ioos:station:wmo:42044:1,2009-11-01T00:00:00Z,26.1914,-97.0507,2.0,275.40174,12.53566113,-99999.0,'11111222,11111222,99999999' 
TABS,ioos:station:wmo:42044:1,2009-11-01T00:30:00Z,26.1914,-97.0507,2.0,263.9232485,15.58757518,-99999.0,'11111222,11111222,99999999' 
TABS,ioos:station:wmo:42044:1,2009-11-01T01:00:00Z,26.1914,-97.0507,2.0,277.6555701,15.01380698,-99999.0,'11111222,11111222,99999999' 
TABS,ioos:station:wmo:42044:1,2009-11-01T01:30:00Z,26.1914,-97.0507,2.0,272.9585981,21.50866105,-99999.0,'11111222,11111222,99999999' 
TABS,ioos:station:wmo:42044:1,2009-11-01T02:00:00Z,26.1914,-97.0507,2.0,262.9557296,20.14202075,-99999.0,'11111222,11111222,99999999' 
TABS,ioos:station:wmo:42044:1,2009-11-01T02:30:00Z,26.1914,-97.0507,2.0,266.8967179,14.04058403,-99999.0,'11111222,11111222,99999999' 
TABS,ioos:station:wmo:42044:1,2009-11-01T03:00:00Z,26.1914,-97.0507,2.0,279.5398654,20.75703495,-99999.0,'11111222,11111222,99999999' 
TABS,ioos:station:wmo:42044:1,2009-11-01T03:30:00Z,26.1914,-97.0507,2.0,276.5091456,17.64372126,-99999.0,'11111222,11111222,99999999' 
TABS,ioos:station:wmo:42044:1,2009-11-01T04:00:00Z,26.1914,-97.0507,2.0,287.5808044,18.87140959,-99999.0,'11111222,11111222,99999999' 
TABS,ioos:station:wmo:42044:1,2009-11-01T04:30:00Z,26.1914,-97.0507,2.0,292.3249782,14.03172477,-99999.0,'11111222,11111222,99999999' 
TABS,ioos:station:wmo:42044:1,2009-11-01T05:00:00Z,26.1914,-97.0507,2.0,312.7667314,13.06311601,-99999.0,'11111222,11111222,99999999' 
TABS,ioos:station:wmo:42044:1,2009-11-01T05:30:00Z,26.1914,-97.0507,2.0,278.1984706,15.49837733,-99999.0,'11111222,11111222,99999999' 
TABS,ioos:station:wmo:42044:1,2009-11-01T06:00:00Z,26.1914,-97.0507,2.0,305.5024209,16.84079867,-99999.0,'11111222,11111222,99999999' 
TABS,ioos:station:wmo:42044:1,2009-11-01T06:30:00Z,26.1914,-97.0507,2.0,302.2841933,12.43180196,-99999.0,'11111222,11111222,99999999' 
TABS,ioos:station:wmo:42044:1,2009-11-01T07:00:00Z,26.1914,-97.0507,2.0,260.5553211,15.6622923,-99999.0,'11111222,11111222,99999999' 
TABS,ioos:station:wmo:42044:1,2009-11-01T07:30:00Z,26.1914,-97.0507,2.0,288.2423127,12.20329873,-99999.0,'11111222,11111222,99999999' 
TABS,ioos:station:wmo:42044:1,2009-11-01T08:00:00Z,26.1914,-97.0507,2.0,273.5292989,8.285710591,-99999.0,'11133222,11111222,99999999' 
TABS,ioos:station:wmo:42044:1,2009-11-01T08:30:00Z,26.1914,-97.0507,2.0,296.8835685,9.6644348,-99999.0,'11133222,11111222,99999999' 
TABS,ioos:station:wmo:42044:1,2009-11-01T09:00:00Z,26.1914,-97.0507,2.0,297.322458,9.477283366,-99999.0,'11133222,11111222,99999999' 
TABS,ioos:station:wmo:42044:1,2009-11-01T09:30:00Z,26.1914,-97.0507,2.0,280.6926081,7.276331493,-99999.0,'11133222,11111222,99999999' 
TABS,ioos:station:wmo:42044:1,2009-11-01T10:00:00Z,26.1914,-97.0507,2.0,270.3323734,8.630144842,-99999.0,'11133222,11111222,99999999' 
TABS,ioos:station:wmo:42044:1,2009-11-01T10:30:00Z,26.1914,-97.0507,2.0,278.8589007,13.57189007,-99999.0,'11111222,11111222,99999999' 
TABS,ioos:station:wmo:42044:1,2009-11-01T11:00:00Z,26.1914,-97.0507,2.0,251.4203521,10.04342571,-99999.0,'11111222,11111222,99999999' 
TABS,ioos:station:wmo:42044:1,2009-11-01T11:30:00Z,26.1914,-97.0507,2.0,263.5323923,8.967061949,-99999.0,'11133222,11111222,99999999' 
TABS,ioos:station:wmo:42044:1,2009-11-01T12:00:00Z,26.1914,-97.0507,2.0,321.829286,9.336407232,-99999.0,'11133222,11111222,99999999' 
TABS,ioos:station:wmo:42044:1,2009-11-01T12:30:00Z,26.1914,-97.0507,2.0,281.6250792,11.0670005,-99999.0,'11111222,11111222,99999999' 
TABS,ioos:station:wmo:42044:1,2009-11-01T13:00:00Z,26.1914,-97.0507,2.0,254.1118272,6.830944298,-99999.0,'11133222,11111222,99999999' 
TABS,ioos:station:wmo:42044:1,2009-11-01T13:30:00Z,26.1914,-97.0507,2.0,252.5619823,8.175726267,-99999.0,'11133222,11111222,99999999' 
TABS,ioos:station:wmo:42044:1,2009-11-01T14:00:00Z,26.1914,-97.0507,2.0,23.95292404,5.98546573,-99999.0,'11133222,11111222,99999999' 
TABS,ioos:station:wmo:42044:1,2009-11-01T14:30:00Z,26.1914,-97.0507,2.0,7.969802217,4.03900978,-99999.0,'11133222,11111222,99999999' 
TABS,ioos:station:wmo:42044:1,2009-11-01T15:00:00Z,26.1914,-97.0507,2.0,42.16873135,5.869079996,-99999.0,'11133222,11111222,99999999' 
TABS,ioos:station:wmo:42044:1,2009-11-01T15:30:00Z,26.1914,-97.0507,2.0,333.4759432,6.292296878,-99999.0,'11133222,11111222,99999999' 
TABS,ioos:station:wmo:42044:1,2009-11-01T16:00:00Z,26.1914,-97.0507,2.0,342.2001942,8.276188736,-99999.0,'11133222,11111222,99999999' 
TABS,ioos:station:wmo:42044:1,2009-11-01T16:30:00Z,26.1914,-97.0507,2.0,339.3883852,8.408240006,-99999.0,'11133222,11111222,99999999' 
TABS,ioos:station:wmo:42044:1,2009-11-01T17:00:00Z,26.1914,-97.0507,2.0,305.6473583,9.74621978,-99999.0,'11133222,11111222,99999999' 
TABS,ioos:station:wmo:42044:1,2009-11-01T17:30:00Z,26.1914,-97.0507,2.0,13.50068523,9.338029771,-99999.0,'11133222,11111222,99999999' 
TABS,ioos:station:wmo:42044:1,2009-11-01T18:00:00Z,26.1914,-97.0507,2.0,299.3051906,13.56607902,-99999.0,'11111222,11111222,99999999' 
TABS,ioos:station:wmo:42044:1,2009-11-01T18:30:00Z,26.1914,-97.0507,2.0,297.0191344,16.37747539,-99999.0,'11111222,11111222,99999999' 
TABS,ioos:station:wmo:42044:1,2009-11-01T19:00:00Z,26.1914,-97.0507,2.0,283.3564194,11.64495599,-99999.0,'11111222,11111222,99999999' 
TABS,ioos:station:wmo:42044:1,2009-11-01T19:30:00Z,26.1914,-97.0507,2.0,308.4203161,16.0438711,-99999.0,'11111222,11111222,99999999' 
TABS,ioos:station:wmo:42044:1,2009-11-01T20:00:00Z,26.1914,-97.0507,2.0,291.2406733,17.44505661,-99999.0,'11111222,11111222,99999999' 
TABS,ioos:station:wmo:42044:1,2009-11-01T20:30:00Z,26.1914,-97.0507,2.0,295.6870589,18.08744316,-99999.0,'11111222,11111222,99999999' 
TABS,ioos:station:wmo:42044:1,2009-11-01T21:00:00Z,26.1914,-97.0507,2.0,284.4832887,22.71172605,-99999.0,'11111222,11111222,99999999' 
TABS,ioos:station:wmo:42044:1,2009-11-01T21:30:00Z,26.1914,-97.0507,2.0,291.6788065,21.62984281,-99999.0,'11111222,11111222,99999999' 
TABS,ioos:station:wmo:42044:1,2009-11-01T22:00:00Z,26.1914,-97.0507,2.0,303.6752701,20.99262966,-99999.0,'11111222,11111222,99999999' 
TABS,ioos:station:wmo:42044:1,2009-11-01T22:30:00Z,26.1914,-97.0507,2.0,299.6125367,21.95792795,-99999.0,'11111222,11111222,99999999' 
TABS,ioos:station:wmo:42044:1,2009-11-01T23:00:00Z,26.1914,-97.0507,2.0,293.7597565,21.19649971,-99999.0,'11111222,11111222,99999999' 
TABS,ioos:station:wmo:42044:1,2009-11-01T23:30:00Z,26.1914,-97.0507,2.0,293.720007,21.08080644,-99999.0,'11111222,11111222,99999999' 
TABS,ioos:station:wmo:42044:1,2009-11-02T00:00:00Z,26.1914,-97.0507,2.0,274.6098655,15.42990603,-99999.0,'11111222,11111222,99999999' 
TABS,ioos:station:wmo:42044:1,2009-11-02T00:30:00Z,26.1914,-97.0507,2.0,294.8677923,20.37952404,-99999.0,'11111222,11111222,99999999' 
TABS,ioos:station:wmo:42044:1,2009-11-02T01:00:00Z,26.1914,-97.0507,2.0,309.1900979,21.4435748,-99999.0,'11111222,11111222,99999999' 
TABS,ioos:station:wmo:42044:1,2009-11-02T01:30:00Z,26.1914,-97.0507,2.0,278.4358068,19.90533848,-99999.0,'11111222,11111222,99999999' 
TABS,ioos:station:wmo:42044:1,2009-11-02T02:00:00Z,26.1914,-97.0507,2.0,285.9882837,16.6645882,-99999.0,'11111222,11111222,99999999' 
TABS,ioos:station:wmo:42044:1,2009-11-02T02:30:00Z,26.1914,-97.0507,2.0,285.3278386,15.28362522,-99999.0,'11111222,11111222,99999999' 
TABS,ioos:station:wmo:42044:1,2009-11-02T03:00:00Z,26.1914,-97.0507,2.0,302.0885192,24.20825686,-99999.0,'11111222,11111222,99999999' 
TABS,ioos:station:wmo:42044:1,2009-11-02T03:30:00Z,26.1914,-97.0507,2.0,283.6087841,26.30857275,-99999.0,'11111222,11111222,99999999' 
TABS,ioos:station:wmo:42044:1,2009-11-02T04:00:00Z,26.1914,-97.0507,2.0,286.2029115,22.64961148,-99999.0,'11111222,11111222,99999999' 
TABS,ioos:station:wmo:42044:1,2009-11-02T04:30:00Z,26.1914,-97.0507,2.0,293.0161911,21.81667482,-99999.0,'11111222,11111222,99999999' 
TABS,ioos:station:wmo:42044:1,2009-11-02T05:00:00Z,26.1914,-97.0507,2.0,289.6855647,28.261679,-99999.0,'11111222,11111222,99999999' 
TABS,ioos:station:wmo:42044:1,2009-11-02T05:30:00Z,26.1914,-97.0507,2.0,287.1379772,24.16283303,-99999.0,'11111222,11111222,99999999' 
TABS,ioos:station:wmo:42044:1,2009-11-02T06:00:00Z,26.1914,-97.0507,2.0,284.8405238,23.85572678,-99999.0,'11111222,11111222,99999999' 
TABS,ioos:station:wmo:42044:1,2009-11-02T06:30:00Z,26.1914,-97.0507,2.0,297.4142788,17.81,-99999.0,'11111222,11111222,99999999' 
TABS,ioos:station:wmo:42044:1,2009-11-02T07:00:00Z,26.1914,-97.0507,2.0,270.7539759,25.85223588,-99999.0,'11111222,11111222,99999999' 
TABS,ioos:station:wmo:42044:1,2009-11-02T07:30:00Z,26.1914,-97.0507,2.0,259.8739917,21.44399683,-99999.0,'11111222,11111222,99999999' 
TABS,ioos:station:wmo:42044:1,2009-11-02T08:00:00Z,26.1914,-97.0507,2.0,285.5145262,21.53462561,-99999.0,'11111222,11111222,99999999' 
TABS,ioos:station:wmo:42044:1,2009-11-02T08:30:00Z,26.1914,-97.0507,2.0,276.3914647,16.17049474,-99999.0,'11111222,11111222,99999999' 
TABS,ioos:station:wmo:42044:1,2009-11-02T09:00:00Z,26.1914,-97.0507,2.0,286.1969459,24.12761488,-99999.0,'11111222,11111222,99999999' 
TABS,ioos:station:wmo:42044:1,2009-11-02T09:30:00Z,26.1914,-97.0507,2.0,265.2459947,18.94516561,-99999.0,'11111222,11111222,99999999' 
TABS,ioos:station:wmo:42044:1,2009-11-02T10:00:00Z,26.1914,-97.0507,2.0,275.6779998,19.00322341,-99999.0,'11111222,11111222,99999999' 
TABS,ioos:station:wmo:42044:1,2009-11-02T10:30:00Z,26.1914,-97.0507,2.0,291.8594693,22.13118162,-99999.0,'11111222,11111222,99999999' 
TABS,ioos:station:wmo:42044:1,2009-11-02T11:00:00Z,26.1914,-97.0507,2.0,290.5133571,21.80243106,-99999.0,'11111222,11111222,99999999' 
TABS,ioos:station:wmo:42044:1,2009-11-02T11:30:00Z,26.1914,-97.0507,2.0,280.809826,21.32844345,-99999.0,'11111222,11111222,99999999' 
TABS,ioos:station:wmo:42044:1,2009-11-02T12:00:00Z,26.1914,-97.0507,2.0,304.5035186,22.08483869,-99999.0,'11111222,11111222,99999999' 
TABS,ioos:station:wmo:42044:1,2009-11-02T12:30:00Z,26.1914,-97.0507,2.0,299.0286118,21.12352717,-99999.0,'11111222,11111222,99999999' 
TABS,ioos:station:wmo:42044:1,2009-11-02T13:00:00Z,26.1914,-97.0507,2.0,298.7280083,25.36165807,-99999.0,'11111222,11111222,99999999' 
TABS,ioos:station:wmo:42044:1,2009-11-02T13:30:00Z,26.1914,-97.0507,2.0,275.9631199,23.96968293,-99999.0,'11111222,11111222,99999999' 
TABS,ioos:station:wmo:42044:1,2009-11-02T14:00:00Z,26.1914,-97.0507,2.0,279.5394905,22.08537978,-99999.0,'11111222,11111222,99999999' 
TABS,ioos:station:wmo:42044:1,2009-11-02T14:30:00Z,26.1914,-97.0507,2.0,284.2071538,22.81785266,-99999.0,'11111222,11111222,99999999' 
TABS,ioos:station:wmo:42044:1,2009-11-02T15:00:00Z,26.1914,-97.0507,2.0,287.2476196,16.32402218,-99999.0,'11111222,11111222,99999999' 
TABS,ioos:station:wmo:42044:1,2009-11-02T15:30:00Z,26.1914,-97.0507,2.0,275.8527862,20.10478799,-99999.0,'11111222,11111222,99999999' 
TABS,ioos:station:wmo:42044:1,2009-11-02T16:00:00Z,26.1914,-97.0507,2.0,280.7509137,15.86851285,-99999.0,'11111222,11111222,99999999' 
TABS,ioos:station:wmo:42044:1,2009-11-02T16:30:00Z,26.1914,-97.0507,2.0,282.1130155,15.67906247,-99999.0,'11111222,11111222,99999999' 
TABS,ioos:station:wmo:42044:1,2009-11-02T17:00:00Z,26.1914,-97.0507,2.0,294.2620224,20.02899149,-99999.0,'11111222,11111222,99999999' 
TABS,ioos:station:wmo:42044:1,2009-11-02T17:30:00Z,26.1914,-97.0507,2.0,295.3789834,15.11906082,-99999.0,'11111222,11111222,99999999' 
TABS,ioos:station:wmo:42044:1,2009-11-02T18:00:00Z,26.1914,-97.0507,2.0,293.6830516,15.3857239,-99999.0,'11111222,11111222,99999999' 
TABS,ioos:station:wmo:42044:1,2009-11-02T18:30:00Z,26.1914,-97.0507,2.0,299.4482268,13.16026216,-99999.0,'11111222,11111222,99999999' 
TABS,ioos:station:wmo:42044:1,2009-11-02T19:00:00Z,26.1914,-97.0507,2.0,298.2166386,11.48474205,-99999.0,'11111222,11111222,99999999' 
TABS,ioos:station:wmo:42044:1,2009-11-02T19:30:00Z,26.1914,-97.0507,2.0,310.1810917,12.70921319,-99999.0,'11111222,11111222,99999999' 
TABS,ioos:station:wmo:42044:1,2009-11-02T20:00:00Z,26.1914,-97.0507,2.0,305.5981911,15.49581879,-99999.0,'11111222,11111222,99999999' 
TABS,ioos:station:wmo:42044:1,2009-11-02T20:30:00Z,26.1914,-97.0507,2.0,335.1128569,9.623689521,-99999.0,'11133222,11111222,99999999' 
TABS,ioos:station:wmo:42044:1,2009-11-02T21:00:00Z,26.1914,-97.0507,2.0,310.5441165,8.645767751,-99999.0,'11133222,11111222,99999999' 
TABS,ioos:station:wmo:42044:1,2009-11-02T21:30:00Z,26.1914,-97.0507,2.0,293.3344076,10.5531275,-99999.0,'11111222,11111222,99999999' 
TABS,ioos:station:wmo:42044:1,2009-11-02T22:00:00Z,26.1914,-97.0507,2.0,259.1038512,10.58074194,-99999.0,'11111222,11111222,99999999' 
TABS,ioos:station:wmo:42044:1,2009-11-02T22:30:00Z,26.1914,-97.0507,2.0,329.1126667,10.32422394,-99999.0,'11111222,11111222,99999999' 
TABS,ioos:station:wmo:42044:1,2009-11-02T23:00:00Z,26.1914,-97.0507,2.0,269.4847412,7.790314499,-99999.0,'11133222,11111222,99999999' 
TABS,ioos:station:wmo:42044:1,2009-11-02T23:30:00Z,26.1914,-97.0507,2.0,326.3666428,5.632983224,-99999.0,'11133222,11111222,99999999' 
TABS,ioos:station:wmo:42044:1,2009-11-03T00:00:00Z,26.1914,-97.0507,2.0,255.6044341,6.194481415,-99999.0,'11133222,11111222,99999999' 
TABS,ioos:station:wmo:42044:1,2009-11-03T00:30:00Z,26.1914,-97.0507,2.0,262.768082,3.336540124,-99999.0,'11133222,11111222,99999999' 
TABS,ioos:station:wmo:42044:1,2009-11-03T01:00:00Z,26.1914,-97.0507,2.0,208.5511146,1.548289379,-99999.0,'11133222,11111222,99999999' 
TABS,ioos:station:wmo:42044:1,2009-11-03T01:30:00Z,26.1914,-97.0507,2.0,266.6114344,9.306266706,-99999.0,'11133222,11111222,99999999' 
TABS,ioos:station:wmo:42044:1,2009-11-03T02:00:00Z,26.1914,-97.0507,2.0,233.236929,6.416011222,-99999.0,'11133222,11111222,99999999' 
TABS,ioos:station:wmo:42044:1,2009-11-03T02:30:00Z,26.1914,-97.0507,2.0,259.8994149,11.51850685,-99999.0,'11111222,11111222,99999999' 
TABS,ioos:station:wmo:42044:1,2009-11-03T03:00:00Z,26.1914,-97.0507,2.0,149.4955108,2.994461554,-99999.0,'11133222,11111222,99999999' 
TABS,ioos:station:wmo:42044:1,2009-11-03T03:30:00Z,26.1914,-97.0507,2.0,275.5340653,9.022045223,-99999.0,'11133222,11111222,99999999' 
TABS,ioos:station:wmo:42044:1,2009-11-03T04:00:00Z,26.1914,-97.0507,2.0,259.0083724,6.346416312,-99999.0,'11133222,11111222,99999999' 
TABS,ioos:station:wmo:42044:1,2009-11-03T04:30:00Z,26.1914,-97.0507,2.0,247.0742319,3.02927384,-99999.0,'11133222,11111222,99999999' 
TABS,ioos:station:wmo:42044:1,2009-11-03T05:00:00Z,26.1914,-97.0507,2.0,219.616899,7.010057061,-99999.0,'11133222,11111222,99999999' 
TABS,ioos:station:wmo:42044:1,2009-11-03T05:30:00Z,26.1914,-97.0507,2.0,267.7229694,6.545166155,-99999.0,'11133222,11111222,99999999' 
TABS,ioos:station:wmo:42044:1,2009-11-03T06:00:00Z,26.1914,-97.0507,2.0,280.84172,11.74971063,-99999.0,'11111222,11111222,99999999' 
TABS,ioos:station:wmo:42044:1,2009-11-03T06:30:00Z,26.1914,-97.0507,2.0,226.092541,14.08812976,-99999.0,'11111222,11111222,99999999' 
TABS,ioos:station:wmo:42044:1,2009-11-03T07:00:00Z,26.1914,-97.0507,2.0,263.8899425,10.42923775,-99999.0,'11111222,11111222,99999999' 
TABS,ioos:station:wmo:42044:1,2009-11-03T07:30:00Z,26.1914,-97.0507,2.0,320.1856292,8.058641325,-99999.0,'11133222,11111222,99999999' 
TABS,ioos:station:wmo:42044:1,2009-11-03T08:00:00Z,26.1914,-97.0507,2.0,255.5333708,13.25009434,-99999.0,'11111222,11111222,99999999' 
TABS,ioos:station:wmo:42044:1,2009-11-03T08:30:00Z,26.1914,-97.0507,2.0,304.3295703,11.68548672,-99999.0,'11111222,11111222,99999999' 
TABS,ioos:station:wmo:42044:1,2009-11-03T09:00:00Z,26.1914,-97.0507,2.0,292.29931,14.96946559,-99999.0,'11111222,11111222,99999999' 
TABS,ioos:station:wmo:42044:1,2009-11-03T09:30:00Z,26.1914,-97.0507,2.0,301.5202446,17.13866097,-99999.0,'11111222,11111222,99999999' 
TABS,ioos:station:wmo:42044:1,2009-11-03T10:00:00Z,26.1914,-97.0507,2.0,294.4791218,14.9871178,-99999.0,'11111222,11111222,99999999' 
TABS,ioos:station:wmo:42044:1,2009-11-03T10:30:00Z,26.1914,-97.0507,2.0,281.3606304,15.63634548,-99999.0,'11111222,11111222,99999999' 
TABS,ioos:station:wmo:42044:1,2009-11-03T11:00:00Z,26.1914,-97.0507,2.0,270.8569912,17.39194354,-99999.0,'11111222,11111222,99999999' 
TABS,ioos:station:wmo:42044:1,2009-11-03T11:30:00Z,26.1914,-97.0507,2.0,275.7298467,15.12556115,-99999.0,'11111222,11111222,99999999' 
TABS,ioos:station:wmo:42044:1,2009-11-03T12:00:00Z,26.1914,-97.0507,2.0,290.4326768,20.0515361,-99999.0,'11111222,11111222,99999999' 
TABS,ioos:station:wmo:42044:1,2009-11-03T12:30:00Z,26.1914,-97.0507,2.0,281.0998541,19.21951092,-99999.0,'11111222,11111222,99999999' 
TABS,ioos:station:wmo:42044:1,2009-11-03T13:00:00Z,26.1914,-97.0507,2.0,260.8782505,16.02260903,-99999.0,'11111222,11111222,99999999' 
TABS,ioos:station:wmo:42044:1,2009-11-03T13:30:00Z,26.1914,-97.0507,2.0,278.2915413,21.63613875,-99999.0,'11111222,11111222,99999999' 
TABS,ioos:station:wmo:42044:1,2009-11-03T14:00:00Z,26.1914,-97.0507,2.0,274.2269031,17.09649379,-99999.0,'11111222,11111222,99999999' 
TABS,ioos:station:wmo:42044:1,2009-11-03T14:30:00Z,26.1914,-97.0507,2.0,289.1783001,21.70453639,-99999.0,'11111222,11111222,99999999' 
TABS,ioos:station:wmo:42044:1,2009-11-03T15:00:00Z,26.1914,-97.0507,2.0,300.2376214,23.67042247,-99999.0,'11111222,11111222,99999999' 
TABS,ioos:station:wmo:42044:1,2009-11-03T15:30:00Z,26.1914,-97.0507,2.0,300.9017085,25.19658707,-99999.0,'11111222,11111222,99999999' 
TABS,ioos:station:wmo:42044:1,2009-11-03T16:00:00Z,26.1914,-97.0507,2.0,283.6844087,22.48832808,-99999.0,'11111222,11111222,99999999' 
TABS,ioos:station:wmo:42044:1,2009-11-03T16:30:00Z,26.1914,-97.0507,2.0,293.9350876,25.14200469,-99999.0,'11111222,11111222,99999999' 
TABS,ioos:station:wmo:42044:1,2009-11-03T17:00:00Z,26.1914,-97.0507,2.0,307.1880303,26.32240491,-99999.0,'11111222,11111222,99999999' 
TABS,ioos:station:wmo:42044:1,2009-11-03T17:30:00Z,26.1914,-97.0507,2.0,296.45145,29.22993842,-99999.0,'11111222,11111222,99999999' 
TABS,ioos:station:wmo:42044:1,2009-11-03T18:00:00Z,26.1914,-97.0507,2.0,312.834758,32.37325594,-99999.0,'11111222,11111222,99999999' 
TABS,ioos:station:wmo:42044:1,2009-11-03T18:30:00Z,26.1914,-97.0507,2.0,313.9358231,33.49435773,-99999.0,'11111222,11111222,99999999' 
TABS,ioos:station:wmo:42044:1,2009-11-03T19:00:00Z,26.1914,-97.0507,2.0,309.7393767,33.0834717,-99999.0,'11111222,11111222,99999999' 
TABS,ioos:station:wmo:42044:1,2009-11-03T19:30:00Z,26.1914,-97.0507,2.0,305.4613279,26.92413973,-99999.0,'11111222,11111222,99999999' 
TABS,ioos:station:wmo:42044:1,2009-11-03T20:00:00Z,26.1914,-97.0507,2.0,311.6338629,31.91022563,-99999.0,'11111222,11111222,99999999' 
TABS,ioos:station:wmo:42044:1,2009-11-03T20:30:00Z,26.1914,-97.0507,2.0,296.9208375,36.04610936,-99999.0,'11111222,11111222,99999999' 
TABS,ioos:station:wmo:42044:1,2009-11-03T21:00:00Z,26.1914,-97.0507,2.0,293.8637587,37.57192569,-99999.0,'11111222,11111222,99999999' 
TABS,ioos:station:wmo:42044:1,2009-11-03T21:30:00Z,26.1914,-97.0507,2.0,298.519892,39.7312094,-99999.0,'11111222,11111222,99999999' 
TABS,ioos:station:wmo:42044:1,2009-11-03T22:00:00Z,26.1914,-97.0507,2.0,304.886168,39.33958439,-99999.0,'11111222,11111222,99999999' 
TABS,ioos:station:wmo:42044:1,2009-11-03T22:30:00Z,26.1914,-97.0507,2.0,299.4058745,32.66884142,-99999.0,'11111222,11111222,99999999' 
TABS,ioos:station:wmo:42044:1,2009-11-03T23:00:00Z,26.1914,-97.0507,2.0,289.2774847,29.26055365,-99999.0,'11111222,11111222,99999999' 
TABS,ioos:station:wmo:42044:1,2009-11-03T23:30:00Z,26.1914,-97.0507,2.0,289.3249881,34.41921702,-99999.0,'11111222,11111222,99999999' 
TABS,ioos:station:wmo:42044:1,2009-11-04T00:00:00Z,26.1914,-97.0507,2.0,298.6483175,26.82370593,-99999.0,'11111222,11111222,99999999' 
TABS,ioos:station:wmo:42044:1,2009-11-04T00:30:00Z,26.1914,-97.0507,2.0,294.6409745,31.82825474,-99999.0,'11111222,11111222,99999999' 
TABS,ioos:station:wmo:42044:1,2009-11-04T01:00:00Z,26.1914,-97.0507,2.0,294.8451908,31.58304134,-99999.0,'11111222,11111222,99999999' 
TABS,ioos:station:wmo:42044:1,2009-11-04T01:30:00Z,26.1914,-97.0507,2.0,308.3400547,22.92354248,-99999.0,'11111222,11111222,99999999' 
TABS,ioos:station:wmo:42044:1,2009-11-04T02:00:00Z,26.1914,-97.0507,2.0,305.8828935,23.56149825,-99999.0,'11111222,11111222,99999999' 
TABS,ioos:station:wmo:42044:1,2009-11-04T02:30:00Z,26.1914,-97.0507,2.0,297.3414867,26.08388966,-99999.0,'11111222,11111222,99999999' 
TABS,ioos:station:wmo:42044:1,2009-11-04T03:00:00Z,26.1914,-97.0507,2.0,295.0678257,25.32541214,-99999.0,'11111222,11111222,99999999' 
TABS,ioos:station:wmo:42044:1,2009-11-04T03:30:00Z,26.1914,-97.0507,2.0,307.2261516,28.33254666,-99999.0,'11111222,11111222,99999999' 
TABS,ioos:station:wmo:42044:1,2009-11-04T04:00:00Z,26.1914,-97.0507,2.0,291.665096,29.57949459,-99999.0,'11111222,11111222,99999999' 
TABS,ioos:station:wmo:42044:1,2009-11-04T04:30:00Z,26.1914,-97.0507,2.0,300.00352,23.93770666,-99999.0,'11111222,11111222,99999999' 
TABS,ioos:station:wmo:42044:1,2009-11-04T05:00:00Z,26.1914,-97.0507,2.0,282.9464318,27.40663606,-99999.0,'11111222,11111222,99999999' 
TABS,ioos:station:wmo:42044:1,2009-11-04T05:30:00Z,26.1914,-97.0507,2.0,266.8827171,23.72509642,-99999.0,'11111222,11111222,99999999' 
TABS,ioos:station:wmo:42044:1,2009-11-04T06:00:00Z,26.1914,-97.0507,2.0,280.0357555,19.39676262,-99999.0,'11111222,11111222,99999999' 
TABS,ioos:station:wmo:42044:1,2009-11-04T06:30:00Z,26.1914,-97.0507,2.0,288.5520548,20.17853563,-99999.0,'11111222,11111222,99999999' 
TABS,ioos:station:wmo:42044:1,2009-11-04T07:00:00Z,26.1914,-97.0507,2.0,272.4811997,19.86862099,-99999.0,'11111222,11111222,99999999' 
TABS,ioos:station:wmo:42044:1,2009-11-04T07:30:00Z,26.1914,-97.0507,2.0,263.2523037,17.87379367,-99999.0,'11111222,11111222,99999999' 
TABS,ioos:station:wmo:42044:1,2009-11-04T08:00:00Z,26.1914,-97.0507,2.0,265.3553565,21.11934185,-99999.0,'11111222,11111222,99999999' 
TABS,ioos:station:wmo:42044:1,2009-11-04T08:30:00Z,26.1914,-97.0507,2.0,270.0549882,21.00000952,-99999.0,'11111222,11111222,99999999' 
TABS,ioos:station:wmo:42044:1,2009-11-04T09:00:00Z,26.1914,-97.0507,2.0,270.6729349,22.15152591,-99999.0,'11111222,11111222,99999999' 
TABS,ioos:station:wmo:42044:1,2009-11-04T09:30:00Z,26.1914,-97.0507,2.0,266.7259351,20.66371941,-99999.0,'11111222,11111222,99999999' 
TABS,ioos:station:wmo:42044:1,2009-11-04T10:00:00Z,26.1914,-97.0507,2.0,245.0601113,16.55356457,-99999.0,'11111222,11111222,99999999' 
TABS,ioos:station:wmo:42044:1,2009-11-04T10:30:00Z,26.1914,-97.0507,2.0,275.0516056,19.1945435,-99999.0,'11111222,11111222,99999999' 
TABS,ioos:station:wmo:42044:1,2009-11-04T11:00:00Z,26.1914,-97.0507,2.0,261.4980205,19.41331759,-99999.0,'11111222,11111222,99999999' 
TABS,ioos:station:wmo:42044:1,2009-11-04T11:30:00Z,26.1914,-97.0507,2.0,279.4888619,18.01648689,-99999.0,'11111222,11111222,99999999' 
TABS,ioos:station:wmo:42044:1,2009-11-04T12:00:00Z,26.1914,-97.0507,2.0,260.5738984,20.57782544,-99999.0,'11111222,11111222,99999999' 
TABS,ioos:station:wmo:42044:1,2009-11-04T12:30:00Z,26.1914,-97.0507,2.0,243.3768905,17.76333302,-99999.0,'11111222,11111222,99999999' 
TABS,ioos:station:wmo:42044:1,2009-11-04T13:00:00Z,26.1914,-97.0507,2.0,235.8129886,16.31989277,-99999.0,'11111222,11111222,99999999' 
TABS,ioos:station:wmo:42044:1,2009-11-04T13:30:00Z,26.1914,-97.0507,2.0,251.3732758,16.0929208,-99999.0,'11111222,11111222,99999999' 
TABS,ioos:station:wmo:42044:1,2009-11-04T14:00:00Z,26.1914,-97.0507,2.0,274.6796691,16.91638259,-99999.0,'11111222,11111222,99999999' 
TABS,ioos:station:wmo:42044:1,2009-11-04T14:30:00Z,26.1914,-97.0507,2.0,249.8324129,6.381230289,-99999.0,'11133222,11111222,99999999' 
TABS,ioos:station:wmo:42044:1,2009-11-04T15:00:00Z,26.1914,-97.0507,2.0,276.0514425,16.41143808,-99999.0,'11111222,11111222,99999999' 
TABS,ioos:station:wmo:42044:1,2009-11-04T15:30:00Z,26.1914,-97.0507,2.0,285.4414203,15.13634698,-99999.0,'11111222,11111222,99999999' 
TABS,ioos:station:wmo:42044:1,2009-11-04T16:00:00Z,26.1914,-97.0507,2.0,272.4549266,17.04563874,-99999.0,'11111222,11111222,99999999' 